Location: Burbank
(38.7788°N, 114.0429°W)
Time: 00:33:00
(UTC+00:00)

Explorer 7 - Pass Details

Date: 16 May 2026
Orbit: 426 x 534 km, 50.2° (Epoch: 10 June)

Event Time Altitude Azimuth Distance (km) Brightness Sun altitude
Exits shadow 10:35:51 15° 151° (SSE) 1,287 8.5 -17.9°
Maximum altitude 10:36:51 16° 131° (SE) 1,222 8.6 -17.8°
Drops below altitude 10° 10:39:08 10° 90° (E) 1,575 9.8 -17.5°
Sets 10:41:52 0° 69° (ENE) 2,475 11.4 -17.1°
